CW9417 Weather Reports


Display with metric or nautical units.
time (UTC)temp
F
wind
direction
speed
MPH
gust
MPH
rain 1hr
in
rain 24hr
in
rain mn
in
humidity
%
barometer
mb
20260503211616 59 288 1.0 3.0 0.00 0.38 0.38 1 1011.5
20260503211339 59 292 0.0 3.0 0.00 0.38 0.38 1 1011.4
20260503210606 59 295 0.0 2.0 0.00 0.38 0.38 1 1011.5
20260503210107 59 296 0.0 2.0 0.00 0.38 0.38 1 1011.4
20260503205555 59 297 0.0 1.0 0.00 0.38 0.38 1 1011.3
20260503205047 59 297 0.0 1.0 0.00 0.38 0.38 1 1011.2
20260503204543 59 297 0.0 0.0 0.00 0.38 0.38 1 1011.2
20260503204035 60 297 0.0 0.0 0.00 0.38 0.38 1 1011.1
20260503204025 60 297 0.0 0.0 0.00 0.38 0.38 1 1011.1
20260503203023 60 297 0.0 1.0 0.00 0.38 0.38 1 1011.2
20260503202520 60 297 0.0 1.0 0.00 0.38 0.38 1 1011.2
20260503202014 60 297 0.0 1.0 0.00 0.38 0.38 1 1011.2
20260503201515 60 297 0.0 1.0 0.00 0.38 0.38 1 1011.2
20260503200957 60 297 0.0 0.0 0.00 0.38 0.38 1 1011.2
20260503200719 60 297 0.0 0.0 0.00 0.38 0.38 1 1011.1
20260503200212 60 297 0.0 0.0 0.00 0.38 0.38 1 1011.1
20260503195438 60 297 0.0 0.0 0.00 0.38 0.38 1 1011.0
20260503195159 60 297 0.0 0.0 0.00 0.38 0.38 1 1010.9
20260503194427 60 297 0.0 0.0 0.00 0.38 0.38 1 1010.8
20260503193922 60 297 0.0 0.0 0.00 0.38 0.38 1 1010.8
20260503193413 60 297 0.0 0.0 0.00 0.38 0.38 1 1010.8
20260503192908 60 297 0.0 0.0 0.00 0.38 0.38 1 1010.8
20260503192403 60 297 0.0 0.0 0.00 0.38 0.38 1 1010.8
20260503191856 60 297 0.0 0.0 0.00 0.38 0.38 1 1010.7
20260503191356 60 297 0.0 0.0 0.00 0.38 0.38 1 1010.7
20260503190851 60 297 0.0 0.0 0.00 0.38 0.38 1 1010.6
20260503190350 60 297 0.0 0.0 0.00 0.38 0.38 1 1010.6
20260503185851 60 297 0.0 0.0 0.00 0.38 0.38 1 1010.5
20260503185349 60 297 0.0 0.0 0.00 0.38 0.38 1 1010.5
20260503184848 60 297 0.0 0.0 0.00 0.38 0.38 1 1010.5
20260503184609 60 297 0.0 1.0 0.00 0.38 0.38 1 1010.4
20260503183850 60 297 0.0 1.0 0.00 0.38 0.38 1 1010.4
20260503183347 60 253 0.0 3.0 0.00 0.38 0.38 1 1010.3
20260503182844 60 253 1.0 3.0 0.00 0.38 0.38 1 1010.3
20260503182344 61 271 1.0 3.0 0.00 0.38 0.38 1 1010.3
20260503181843 61 287 1.0 3.0 0.00 0.38 0.38 1 1010.2
20260503181344 61 279 1.0 3.0 0.00 0.38 0.38 1 1010.1
20260503181118 61 269 1.0 4.0 0.00 0.38 0.38 1 1010.0
20260503180343 62 293 1.0 4.0 0.00 0.38 0.38 1 1009.9
20260503175842 62 314 1.0 4.0 0.00 0.38 0.38 1 1009.9
20260503175337 62 290 1.0 4.0 0.00 0.38 0.38 1 1009.8
20260503174838 62 284 2.0 6.0 0.00 0.38 0.38 1 1009.9
20260503174341 62 277 1.0 6.0 0.00 0.38 0.38 1 1009.8
20260503173835 62 271 1.0 5.0 0.00 0.38 0.38 1 1009.9
20260503173330 61 293 2.0 7.0 0.00 0.38 0.38 1 1009.9
20260503172824 61 286 2.0 7.0 0.00 0.38 0.38 1 1009.9
20260503172320 61 282 1.0 6.0 0.00 0.38 0.38 1 1009.9
20260503171821 61 286 2.0 6.0 0.00 0.38 0.38 1 1009.9
20260503171319 61 300 2.0 6.0 0.00 0.38 0.38 1 1009.9
20260503171042 62 281 2.0 6.0 0.00 0.38 0.38 1 1009.9
20260503170319 62 293 2.0 6.0 0.00 0.38 0.38 1 1009.9
20260503150805 62 305 1.0 6.0 0.00 0.38 0.38 1 1009.9
20260503150307 62 297 1.0 5.0 0.00 0.38 0.38 1 1009.9
20260503140304 62 265 1.0 5.0 0.00 0.38 0.38 1 1010.1
20260503131228 61 289 1.0 5.0 0.01 0.38 0.38 1 1010.5
20260503130948 60 288 1.0 6.0 0.01 0.38 0.38 1 1010.5
20260503130222 60 284 1.0 6.0 0.02 0.38 0.38 1 1010.6
20260503120216 60 298 1.0 4.0 0.02 0.36 0.36 1 1010.7
20260503110633 60 287 2.0 6.0 0.07 0.34 0.34 1 1010.7
20260503110127 61 275 2.0 6.0 0.07 0.34 0.34 1 1010.8
20260503090410 63 217 1.0 5.0 0.00 0.27 0.27 1 1010.5
20260503081528 61 105 1.0 5.0 0.00 0.27 0.27 1 1010.5
20260503080803 61 271 1.0 4.0 0.00 0.27 0.27 1 1010.4
20260503080257 61 101 1.0 3.0 0.01 0.27 0.27 1 1010.4
20260503072715 59 124 0.0 2.0 0.02 0.27 0.27 1 1010.5
20260503072208 59 103 0.0 2.0 0.02 0.27 0.27 1 1010.5
20260503071756 59 127 1.0 4.0 0.02 0.27 0.27 1 1010.4
20260503070655 59 102 1.0 3.0 0.01 0.26 0.27 1 1010.2
20260503070410 59 105 1.0 5.0 0.01 0.26 0.26 1 1010.3
20260503060117 58 105 1.0 4.0 0.00 0.25 0.25 1 1010.7
20260503055115 58 116 0.0 3.0 0.00 0.25 0.25 1 1010.6
20260503054615 58 120 0.0 1.0 0.00 0.25 0.25 1 1010.5
20260503054115 58 103 0.0 1.0 0.00 0.25 0.25 1 1010.6
20260503053615 58 106 0.0 1.0 0.00 0.25 0.25 1 1010.6
20260503053117 58 107 0.0 1.0 0.00 0.25 0.25 1 1010.6
20260503052617 58 115 0.0 2.0 0.00 0.25 0.25 1 1010.6
20260503052111 58 117 0.0 2.0 0.00 0.25 0.25 1 1010.7
20260503051604 57 114 0.0 2.0 0.00 0.25 0.25 1 1010.7
20260503051103 57 95 0.0 1.0 0.00 0.25 0.25 1 1010.7
20260503050603 57 327 0.0 0.0 0.00 0.25 0.25 1 1010.7
20260503050109 57 101 0.0 1.0 0.00 0.25 0.25 1 1010.7
20260503045603 57 101 0.0 1.0 0.00 0.25 0.25 1 1010.7
20260503045102 58 91 0.0 1.0 0.00 0.25 0.25 1 1010.7
20260503044604 58 94 0.0 1.0 0.01 0.25 0.25 1 1010.7
20260503044101 58 93 0.0 1.0 0.02 0.25 0.25 1 1010.7
20260503043603 58 217 0.0 2.0 0.02 0.25 0.25 1 1010.7
20260503043327 58 111 0.0 3.0 0.02 0.25 0.25 1 1010.6
20260503042602 58 113 0.0 3.0 0.02 0.25 0.25 1 1010.6
20260503042551 58 118 0.0 2.0 0.02 0.25 0.25 1 1010.6
20260503041616 58 120 0.0 2.0 0.02 0.25 0.25 1 1010.6
20260503041102 58 108 0.0 3.0 0.02 0.25 0.25 1 1010.7
20260503040605 58 106 1.0 3.0 0.02 0.25 0.25 1 1010.7
20260503040107 58 110 0.0 2.0 0.02 0.25 0.25 1 1010.8
20260503035605 58 96 0.0 2.0 0.02 0.25 0.25 1 1011.0
20260503035104 58 108 0.0 1.0 0.02 0.25 0.25 1 1010.8
20260503034826 58 95 0.0 2.0 0.02 0.24 0.24 1 1011.0
20260503034104 58 105 0.0 2.0 0.02 0.24 0.24 1 1011.2
20260503033605 57 95 0.0 1.0 0.02 0.23 0.23 1 1011.4
20260503033116 57 91 0.0 2.0 0.02 0.23 0.23 1 1011.5
20260503032824 57 85 0.0 2.0 0.02 0.23 0.23 1 1011.6
20260503032333 57 174 0.0 2.0 0.02 0.23 0.23 1 1011.7
20260503031603 57 167 0.0 2.0 0.02 0.23 0.23 1 1011.7
20260503031104 57 109 0.0 3.0 0.02 0.23 0.23 1 1011.7
20260503030604 57 178 0.0 3.0 0.02 0.23 0.23 1 1011.7
20260503030107 57 186 0.0 2.0 0.02 0.23 0.23 1 1011.7
20260503025557 57 127 0.0 2.0 0.02 0.23 0.23 1 1011.6
20260503025051 57 122 0.0 2.0 0.02 0.23 0.23 1 1011.6
20260503024545 57 94 0.0 1.0 0.02 0.22 0.22 1 1011.5
20260503024039 57 130 0.0 1.0 0.01 0.21 0.21 1 1011.7
20260503023533 57 113 0.0 1.0 0.00 0.20 0.20 1 1011.7
20260503023028 57 102 0.0 0.0 0.00 0.20 0.20 1 1011.7
20260503022752 57 158 0.0 0.0 0.00 0.20 0.20 1 1011.7
20260503022017 57 157 0.0 0.0 0.00 0.20 0.20 1 1011.8
20260503021518 57 123 0.0 1.0 0.00 0.20 0.20 1 1011.7
20260503021016 57 124 0.0 1.0 0.00 0.20 0.20 1 1011.8
20260503020514 57 124 0.0 1.0 0.00 0.20 0.20 1 1011.7
20260503020012 57 124 0.0 1.0 0.00 0.20 0.20 1 1011.6
20260503015513 57 99 0.0 1.0 0.00 0.20 0.20 1 1011.6
20260503015243 57 110 0.0 0.0 0.00 0.20 0.20 1 1011.6
20260503014510 57 110 0.0 0.0 0.00 0.20 0.20 1 1011.6
20260503014013 57 113 0.0 0.0 0.00 0.20 0.20 1 1011.6
20260503013510 57 110 0.0 2.0 0.00 0.20 0.20 1 1011.5
20260503013007 57 113 0.0 2.0 0.00 0.20 0.20 1 1011.7
20260503012505 58 98 0.0 1.0 0.00 0.20 0.20 1 1011.7
20260503012010 58 106 0.0 0.0 0.00 0.20 0.20 1 1011.7
20260503011504 58 139 0.0 2.0 0.00 0.20 0.20 1 1011.8
20260503010959 58 111 1.0 4.0 0.00 0.20 0.20 1 1011.9
20260503010502 58 117 1.0 4.0 0.00 0.20 0.20 1 1011.9
20260503005958 58 219 0.0 2.0 0.00 0.20 0.20 1 1011.8
20260503005457 58 108 0.0 3.0 0.00 0.20 0.20 1 1011.9
20260503004955 58 103 0.0 3.0 0.00 0.20 0.20 1 1011.9
20260503004455 58 136 1.0 4.0 0.00 0.20 0.20 1 1011.9
20260503003950 58 96 1.0 4.0 0.00 0.20 0.20 1 1011.9
20260503003444 58 101 0.0 3.0 0.00 0.20 0.20 1 1012.0
20260503003208 58 88 0.0 2.0 0.00 0.20 0.20 1 1012.0
20260503002431 58 136 0.0 0.0 0.00 0.20 0.20 1 1012.0
20260503001925 58 109 0.0 1.0 0.00 0.20 0.20 1 1012.1
20260503001419 58 110 0.0 1.0 0.00 0.20 0.20 1 1012.1
20260503000913 58 112 0.0 3.0 0.01 0.20 0.20 1 1012.2
20260503000408 58 281 0.0 3.0 0.04 0.20 0.20 1 1012.2
20260503000119 58 103 0.0 1.0 0.06 0.20 0.20 1 1012.2
20260502235356 59 150 0.0 2.0 0.08 0.20 0.20 1 1012.1
20260502234851 59 230 0.0 2.0 0.10 0.20 0.20 1 1012.2
20260502234345 59 151 1.0 4.0 0.13 0.20 0.20 1 1012.2
20260502233841 59 136 1.0 4.0 0.16 0.20 0.20 1 1012.2
20260502233331 59 188 1.0 3.0 0.17 0.20 0.20 1 1012.2
20260502232825 59 112 1.0 4.0 0.18 0.20 0.20 1 1012.2
20260502232321 59 41 1.0 4.0 0.19 0.20 0.20 1 1012.2
20260502232042 58 181 2.0 9.0 0.19 0.20 0.20 1 1012.2
20260502231310 58 83 3.0 9.0 0.20 0.20 0.20 1 1012.4
20260502230802 58 40 3.0 7.0 0.19 0.19 0.19 1 1012.4
20260502230523 58 97 4.0 7.0 0.16 0.16 0.17 1 1012.9
20260502225751 58 106 4.0 9.0 0.14 0.14 0.14 1 1012.8
20260502225246 58 129 4.0 10.0 0.12 0.12 0.13 1 1013.1
20260502224738 58 82 4.0 10.0 0.09 0.09 0.10 1 1013.1
20260502224232 58 101 3.0 8.0 0.07 0.07 0.08 1 1013.1
20260502223726 58 122 2.0 7.0 0.04 0.04 0.05 1 1013.7
20260502223220 58 81 2.0 5.0 0.03 0.03 0.03 1 1014.2
20260502222713 58 128 2.0 4.0 0.02 0.02 0.02 1 1014.2
20260502222210 59 97 3.0 10.0 0.02 0.02 0.02 1 1014.2
20260502221704 59 116 3.0 10.0 0.02 0.02 0.02 1 1014.5
20260502221424 59 139 4.0 9.0 0.00 0.00 0.00 1 1014.5
20260502220649 59 305 4.0 10.0 0.00 0.00 0.00 1 1015.1
20260502220143 58 150 3.0 10.0 0.00 0.00 0.00 1 1015.2
20260502215639 58 221 2.0 7.0 0.00 0.00 0.00 1 1015.0
20260502215132 58 118 1.0 5.0 0.00 0.00 0.00 1 1013.7
20260502214624 58 108 1.0 4.0 0.00 0.00 0.00 1 1013.5
20260502214122 58 115 1.0 4.0 0.00 0.00 0.00 1 1013.4
20260502213614 58 93 1.0 4.0 0.00 0.00 0.00 1 1013.6
20260502213109 58 96 1.0 7.0 0.00 0.00 0.00 1 1013.4
20260502212603 58 114 1.0 7.0 0.00 0.00 0.00 1 1013.5
20260502212103 58 124 1.0 6.0 0.00 0.00 0.00 1 1013.6